TimeGMT,TemperatureF,Dew PointF,Humidity,Sea Level PressureIn,VisibilityMPH,Wind Direction,Wind SpeedMPH,Gust SpeedMPH,PrecipitationIn,Events,Conditions,WindDirDegrees,DateUTC
12:20 AM,50.0,48.2,94,30.27,4.3,South,4.6,-,N/A,,Mostly Cloudy,180,2012-11-15 00:20:00
12:50 AM,50.0,48.2,94,30.27,4.3,SSW,3.5,-,N/A,,Mostly Cloudy,200,2012-11-15 00:50:00
1:20 AM,50.0,48.2,94,30.24,4.3,Variable,2.3,-,N/A,,Mostly Cloudy,0,2012-11-15 01:20:00
1:50 AM,48.2,46.4,93,30.24,4.3,SSE,3.5,-,N/A,,Mostly Cloudy,150,2012-11-15 01:50:00
2:20 AM,48.2,46.4,93,30.24,4.3,SSE,3.5,-,N/A,,Mostly Cloudy,150,2012-11-15 02:20:00
2:50 AM,48.2,46.4,93,30.24,4.3,SE,3.5,-,N/A,,Mostly Cloudy,130,2012-11-15 02:50:00
3:20 AM,46.4,44.6,93,30.24,1.7,ESE,3.5,-,N/A,,Mostly Cloudy,120,2012-11-15 03:20:00
3:50 AM,46.4,44.6,93,30.24,1.1,ESE,4.6,-,N/A,,Mostly Cloudy,120,2012-11-15 03:50:00
4:20 AM,44.6,42.8,93,30.24,2.8,ESE,3.5,-,N/A,,Partly Cloudy,110,2012-11-15 04:20:00
4:50 AM,42.8,41.0,93,30.24,2.8,ESE,3.5,-,N/A,Fog,Shallow Fog,110,2012-11-15 04:50:00
5:20 AM,42.8,41.0,93,30.24,2.8,ESE,2.3,-,N/A,Fog,Shallow Fog,120,2012-11-15 05:20:00
5:50 AM,41.0,39.2,93,30.21,2.8,SE,3.5,-,N/A,Fog,Shallow Fog,140,2012-11-15 05:50:00
6:20 AM,41.0,39.2,93,30.21,2.8,SE,3.5,-,N/A,Fog,Fog,130,2012-11-15 06:20:00
6:50 AM,42.8,41.0,93,30.21,2.5,SE,3.5,-,N/A,Fog,Fog,140,2012-11-15 06:50:00
7:20 AM,42.8,42.8,100,30.21,2.2,SE,2.3,-,N/A,,Mostly Cloudy,130,2012-11-15 07:20:00
7:50 AM,42.8,42.8,100,30.24,1.9,Calm,Calm,-,N/A,,Mostly Cloudy,0,2012-11-15 07:50:00
8:20 AM,44.6,42.8,93,30.24,1.9,Variable,2.3,-,N/A,,Mostly Cloudy,0,2012-11-15 08:20:00
8:50 AM,44.6,44.6,100,30.24,-9999.0,East,2.3,-,N/A,,Mostly Cloudy,100,2012-11-15 08:50:00
9:20 AM,46.4,46.4,100,30.21,-9999.0,Calm,Calm,-,N/A,,Mostly Cloudy,0,2012-11-15 09:20:00
9:50 AM,48.2,46.4,93,30.21,-9999.0,South,3.5,-,N/A,,Mostly Cloudy,190,2012-11-15 09:50:00
10:20 AM,48.2,46.4,93,30.21,1.9,SW,2.3,-,N/A,,Mostly Cloudy,230,2012-11-15 10:20:00
10:50 AM,48.2,46.4,93,30.21,1.9,Variable,3.5,-,N/A,,Haze,0,2012-11-15 10:50:00
11:20 AM,48.2,46.4,93,30.21,1.6,Variable,3.5,-,N/A,,Haze,0,2012-11-15 11:20:00
11:50 AM,48.2,46.4,93,30.18,1.6,SSW,2.3,-,N/A,,Haze,200,2012-11-15 11:50:00
12:20 PM,50.0,48.2,94,30.18,2.5,SSE,6.9,-,N/A,,Haze,150,2012-11-15 12:20:00
12:50 PM,51.8,46.4,82,30.15,4.3,SSE,4.6,-,N/A,,Partly Cloudy,150,2012-11-15 12:50:00
1:20 PM,53.6,46.4,77,30.15,6.2,South,5.8,-,N/A,,Partly Cloudy,190,2012-11-15 13:20:00
1:50 PM,53.6,46.4,77,30.12,6.2,SSW,4.6,-,N/A,,Partly Cloudy,200,2012-11-15 13:50:00
2:20 PM,53.6,44.6,72,30.12,6.2,South,10.4,-,N/A,,Partly Cloudy,170,2012-11-15 14:20:00
2:50 PM,53.6,42.8,67,30.12,6.2,South,9.2,-,N/A,,Partly Cloudy,170,2012-11-15 14:50:00
3:20 PM,51.8,42.8,71,30.09,6.2,South,9.2,-,N/A,,Partly Cloudy,170,2012-11-15 15:20:00
3:50 PM,48.2,42.8,82,30.09,6.2,South,5.8,-,N/A,,Partly Cloudy,180,2012-11-15 15:50:00
4:20 PM,46.4,41.0,81,30.09,6.2,South,4.6,-,N/A,,Partly Cloudy,180,2012-11-15 16:20:00
4:50 PM,44.6,39.2,81,30.09,6.2,South,5.8,-,N/A,,Partly Cloudy,170,2012-11-15 16:50:00
5:20 PM,44.6,41.0,87,30.09,-9999.0,South,8.1,-,N/A,,Clear,180,2012-11-15 17:20:00
5:50 PM,42.8,41.0,93,30.12,4.3,South,8.1,-,N/A,,Scattered Clouds,190,2012-11-15 17:50:00
6:20 PM,42.8,41.0,93,30.12,3.7,South,8.1,-,N/A,,Scattered Clouds,170,2012-11-15 18:20:00
6:50 PM,42.8,41.0,93,30.12,4.3,SSE,5.8,-,N/A,,Scattered Clouds,160,2012-11-15 18:50:00
7:20 PM,41.0,39.2,93,30.09,4.3,South,9.2,-,N/A,,Scattered Clouds,190,2012-11-15 19:20:00
7:50 PM,39.2,37.4,93,30.09,4.3,South,8.1,-,N/A,,Scattered Clouds,190,2012-11-15 19:50:00
8:20 PM,39.2,37.4,93,30.09,5.0,South,6.9,-,N/A,,Scattered Clouds,170,2012-11-15 20:20:00
8:50 PM,39.2,37.4,93,30.09,4.3,SSE,6.9,-,N/A,,Scattered Clouds,150,2012-11-15 20:50:00
9:20 PM,39.2,37.4,93,30.09,4.3,SE,5.8,-,N/A,,Scattered Clouds,140,2012-11-15 21:20:00
9:50 PM,41.0,37.4,87,30.09,4.3,SE,5.8,-,N/A,,Mostly Cloudy,140,2012-11-15 21:50:00
10:20 PM,41.0,37.4,87,30.06,4.3,SSE,5.8,-,N/A,,Mostly Cloudy,160,2012-11-15 22:20:00
10:50 PM,41.0,37.4,87,30.06,4.3,SSE,6.9,-,N/A,,Mostly Cloudy,160,2012-11-15 22:50:00
11:20 PM,41.0,37.4,87,30.06,4.3,SE,4.6,-,N/A,,Mostly Cloudy,140,2012-11-15 23:20:00
11:50 PM,41.0,37.4,87,30.06,4.3,Variable,2.3,-,N/A,,Mostly Cloudy,0,2012-11-15 23:50:00